{"data":{"norad_id":55166,"epoch":"2026-05-25T03:37:48.330912Z","epoch_age_seconds":61187,"freshness":"FRESH","line1":"1 55166U 23004AC  26145.15125383  .00000114  00000+0  26067-3 0  9997","line2":"2 55166  87.9152  10.4558 0001825  79.1751 280.9586 13.17649621164544","mean_motion":13.17649621,"eccentricity":0.0001825,"inclination_deg":87.9152,"raan_deg":10.4558,"arg_perigee_deg":79.1751,"mean_anomaly_deg":280.9586,"bstar":0.00026067,"rev_number":16454,"period_min":109.28550177908,"perigee_km":1192.3290185816,"apogee_km":1195.0927430581,"semimajor_km":7571.8478808198,"source":"CELESTRAK","updated_at":"2026-05-25T13:38:22.645134Z"}}